Location: Unspecified
(0.0000°N, 0.0000°E)
Time: 01:26:14
(UTC+02:00)

ASC 2 Rocket - Visible Passes

Search period start: 20 April 2018 00:00
Search period end: 30 April 2018 00:00
Orbit: 556 x 2345 km, 24.0° (Epoch: 19 April)

Date Brightness Start Highest point End Pass type
(mag) Time Alt. Az. Time Alt. Az. Time Alt. Az.
20 Apr 6.4 04:20:08 42° NNE 04:20:30 42° NNE 04:32:47 10° E visible
20 Apr 5.7 06:14:59 18° WNW 06:26:46 78° NNE 06:37:52 10° ESE visible
20 Apr 5.8 20:47:10 10° WNW 20:52:21 29° NNW 20:59:38 10° NE visible
20 Apr 6.7 22:51:39 10° NW 22:57:30 19° N 22:59:29 18° N visible
21 Apr 7.1 03:18:27 24° ENE 03:18:27 24° ENE 03:23:58 10° ENE visible
21 Apr 6.0 05:13:18 44° NNW 05:18:24 62° NNE 05:30:46 10° ESE visible
21 Apr 5.6 07:10:01 10° WNW 07:23:58 69° SSW 07:34:11 10° SE visible
21 Apr 6.4 21:44:59 10° NW 21:49:52 19° N 21:56:07 10° NE visible
21 Apr 7.0 23:49:35 10° NW 23:52:13 15° NNW 23:52:13 15° NNW visible
22 Apr 6.3 04:11:41 47° NE 04:11:41 47° NE 04:22:52 10° E visible
22 Apr 5.6 06:06:33 28° WNW 06:15:55 89° SSW 06:27:45 10° ESE visible
22 Apr 6.1 20:38:30 10° WNW 20:42:43 20° N 20:48:10 10° NNE visible
22 Apr 6.7 22:43:10 10° NNW 22:47:51 16° N 22:50:01 15° NNE visible
23 Apr 7.3 03:10:04 21° ENE 03:10:04 21° ENE 03:14:03 10° E visible
23 Apr 5.8 05:04:57 64° NNW 05:07:30 74° NNE 05:20:37 10° ESE visible
23 Apr 5.7 06:59:49 12° WNW 07:13:09 58° SSW 07:23:57 10° SE visible
23 Apr 6.6 21:36:51 10° NNW 21:40:18 14° N 21:44:23 10° NNE visible
23 Apr 7.0 23:40:28 10° NNW 23:42:35 14° NNW 23:42:35 14° NNW visible
24 Apr 6.4 04:03:20 46° ENE 04:03:20 46° ENE 04:12:42 10° E visible
24 Apr 5.7 05:58:12 40° WNW 06:04:58 76° SSW 06:17:25 10° ESE visible
24 Apr 6.3 20:30:23 10° NW 20:33:11 14° N 20:36:26 10° NNE visible
24 Apr 6.8 22:34:49 10° NNW 22:38:16 13° N 22:40:16 12° NNE visible
25 Apr 7.4 03:01:42 16° E 03:01:42 16° E 03:03:54 10° E visible
25 Apr 5.6 04:56:33 86° NE 04:56:33 86° NE 05:10:13 10° ESE visible
25 Apr 5.9 06:51:25 18° W 07:02:20 50° SSW 07:13:35 10° SE visible
25 Apr 6.6 21:30:07 10° N 21:30:48 10° N 21:31:31 10° N visible
25 Apr 6.9 23:31:07 10° NNW 23:32:43 13° N 23:32:43 13° N visible
26 Apr 6.6 03:54:52 38° E 03:54:52 38° E 04:02:16 10° ESE visible
26 Apr 5.7 05:49:44 50° W 05:53:58 65° SSW 06:06:55 10° SE visible
26 Apr 6.7 22:26:34 10° N 22:28:42 11° N 22:30:20 11° NNE visible
27 Apr 7.6 02:53:09 11° E 02:53:09 11° E 02:53:30 10° E visible
27 Apr 5.8 04:47:59 67° SE 04:47:59 67° SE 04:59:36 10° ESE visible
27 Apr 6.1 06:42:51 23° WSW 06:51:34 43° SSW 07:03:04 10° SE visible
27 Apr 6.8 23:21:30 10° NNW 23:22:44 13° N 23:22:44 13° N visible
28 Apr 6.9 03:46:11 29° ESE 03:46:11 29° ESE 03:51:35 10° ESE visible
28 Apr 5.8 05:41:02 52° SW 05:43:02 55° SSW 05:56:13 10° SE visible
28 Apr 6.6 22:18:32 10° N 22:19:07 10° NNE 22:19:41 10° NNE visible
29 Apr 6.2 04:39:10 49° SE 04:39:10 49° SE 04:48:46 10° SE visible
29 Apr 6.3 06:34:01 25° WSW 06:40:54 37° SSW 06:52:30 10° SE visible
29 Apr 6.7 23:11:38 10° NNW 23:12:41 13° N 23:12:41 13° N visible
